Monterey, CA

5:17 AM PDT on August 30, 2016 (GMT -0700)
Monterey Peninsula

Weather History for KMRY - October, 2014

Change the Weather History Date:

Saturday, October 18, 2014

  Actual Average Record
Temperature  
Mean Temperature 65 °F 58 °F  
Max Temperature 75 °F 67 °F 84 °F (2012)
Min Temperature 55 °F 50 °F 43 °F (2013)
Growing Degree Days 14 (Base 50)    
Moisture  
Dew Point 53 °F    
Average Humidity 65    
Maximum Humidity 83    
Minimum Humidity 46    
Precipitation  
Precipitation 0.00 in - 0.01 in (2011)
Month to date precipitation 0.02  
Year to date precipitation 7.78  
Since 1 July precipitation 0.39  
Sea Level Pressure  
Sea Level Pressure 29.98 in    
Wind  
Wind Speed 5 mph (SE)    
Max Wind Speed 13 mph    
Max Gust Speed 23 mph    
Visibility 10 miles    
Events      
T = Trace of Precipitation, MM = Missing Value Source: NWS Daily Summary

Daily Weather History Graph

Daily Weather History Graph

Search for Another Location

Airport or City:

Trip Planner

Search our weather history database for the weather conditions in past years. The results will help you decide how hot, cold, wet, or windy it might be!

Date:

Astronomy

Oct. 18, 2014 Rise Set
Actual Time 7:17 AM PDT 6:26 PM PDT
Civil Twilight 6:51 AM PDT 6:53 PM PDT
Nautical Twilight 6:21 AM PDT 7:23 PM PDT
Astronomical Twilight 5:51 AM PDT 7:52 PM PDT
Moon 2:28 AM PDT (10/18) 3:43 PM PDT (10/18)
Length of Visible Light 12h 01m
Length of Day
11h 09m
Waning Crescent, 23% of the Moon is Illuminated
Oct 18
Waning Crescent
Oct 23
New
Oct 30
First Quarter
Nov 6
Full
Nov 14
Last Quarter

Hourly Weather History & Observations

Time (PDT) Temp. Dew Point Humidity Pressure Visibility Wind Dir Wind Speed Gust Speed Precip Events Conditions
12:54 AM 57.9 °F 50.0 °F 75% 30.03 in 10.0 mi Calm Calm - N/A   Clear
1:54 AM 55.9 °F 50.0 °F 80% 30.03 in 10.0 mi East 3.5 mph - N/A   Clear
2:54 AM 57.0 °F 51.1 °F 81% 30.02 in 10.0 mi East 5.8 mph - N/A   Clear
3:54 AM 57.0 °F 50.0 °F 77% 30.01 in 10.0 mi East 6.9 mph - N/A   Clear
4:54 AM 57.0 °F 48.9 °F 74% 30.01 in 10.0 mi Calm Calm - N/A   Clear
5:54 AM 55.9 °F 48.0 °F 75% 30.01 in 10.0 mi East 3.5 mph - N/A   Clear
6:54 AM 55.9 °F 48.0 °F 75% 30.01 in 10.0 mi East 5.8 mph - N/A   Clear
7:54 AM 57.0 °F 48.9 °F 74% 30.02 in 10.0 mi East 5.8 mph - N/A   Clear
8:54 AM 64.9 °F 51.1 °F 61% 30.02 in 10.0 mi ENE 5.8 mph - N/A   Clear
9:54 AM 70.0 °F 54.0 °F 57% 30.02 in 10.0 mi NNW 4.6 mph - N/A   Clear
10:54 AM 71.1 °F 55.0 °F 57% 30.01 in 10.0 mi WSW 5.8 mph - N/A   Clear
11:54 AM 73.0 °F 54.0 °F 51% 29.99 in 10.0 mi West 9.2 mph - N/A   Clear
12:54 PM 73.0 °F 53.1 °F 49% 29.98 in 10.0 mi West 8.1 mph - N/A   Clear
1:54 PM 73.9 °F 52.0 °F 46% 29.95 in 10.0 mi WNW 8.1 mph - N/A   Clear
2:54 PM 73.0 °F 55.9 °F 55% 29.94 in 10.0 mi WNW 8.1 mph - N/A   Clear
3:54 PM 70.0 °F 59.0 °F 68% 29.94 in 10.0 mi WNW 11.5 mph - N/A   Clear
4:54 PM 70.0 °F 57.0 °F 63% 29.93 in 10.0 mi WNW 8.1 mph - N/A   Clear
5:54 PM 69.1 °F 55.9 °F 63% 29.93 in 10.0 mi West 4.6 mph - N/A   Clear
6:54 PM 66.9 °F 55.0 °F 66% 29.94 in 10.0 mi SW 3.5 mph - N/A   Clear
7:54 PM 64.9 °F 55.0 °F 70% 29.96 in 10.0 mi Calm Calm - N/A   Clear
8:54 PM 64.0 °F 54.0 °F 70% 29.96 in 10.0 mi SSE 3.5 mph - N/A   Clear
9:54 PM 64.0 °F 53.1 °F 67% 29.95 in 10.0 mi SE 4.6 mph - N/A   Clear
10:54 PM 66.0 °F 52.0 °F 60% 29.94 in 10.0 mi SSE 5.8 mph - N/A   Clear
11:54 PM 62.1 °F 52.0 °F 70% 29.93 in 10.0 mi East 5.8 mph - N/A   Clear